Regional Weather Roundup
Issued by NWS Wakefield, VA

Home | Current Version | Previous Version | Text Only | Print | Product List | Glossary On
Versions: 1 2 3 4 5 6 7 8 9 10 11 12 13 14 15 16 17 18 19 20 21 22 23 24 25 26 27 28 29 30 31 32 33 34 35 36 37 38 39 40 41 42 43 44 45 46 47 48 49 50
608
ASUS41 KAKQ 022115
RWRAKQ

REGIONAL WEATHER ROUNDUP
NATIONAL WEATHER SERVICE WAKEFIELD VA
400 PM EST FRI DEC 02 2016

Note: "fair" indicates few or no clouds below 12,000 feet with no
significant weather and/or obstructions to visibility. * = Denotes
station may not report precipitation (e.g., rain,snow,etc.),
thunder or fog.

VAZ042-051-052>054-056-022200-
NORTHERN VIRGINIA

CITY           SKY/WX    TMP DP  RH WIND       PRES   REMARKS
WASH NATIONAL  PTCLDY    50  30  46 NW9G21    30.05R
DULLES         PTCLDY    46  29  51 NW14      30.06R
FORT BELVOIR   CLEAR     51  29  43 NW8       30.04R
QUANTICO       PTCLDY    52  28  39 N12       30.05R
FREDERICKSBRG* CLEAR     54  32  43 W14       30.03R
STAFFORD*      PTCLDY    52  31  44 NW8       30.08R
WARRENTON      PTCLDY    50  24  36 N9        30.04R
CULPEPER*      PTCLDY    51  30  44 CALM      30.05S
MANASSAS*      MOCLDY    48  30  49 NW14      30.06R
LEESBURG*      MOCLDY    45  32  61 NW21G28   30.08R
WINCHESTER     CLOUDY    41  28  60 NW9       30.07S
FRONT ROYAL*   CLOUDY    43  32  65 NW7       30.06R
LURAY*         FAIR      46  32  57 NW9       30.06R
$$

VAZ048-049-060>072-079>083-022200-
CENTRAL AND SOUTH CENTRAL VIRGINIA

CITY           SKY/WX    TMP DP  RH WIND       PRES   REMARKS
RICHMOND       PTCLDY    54  29  38 W9        30.04R
CHESTERFIELD*  FAIR      54  25  32 W9        30.06R
PETERSBURG*    CLEAR     53  29  40 W12       30.06S
HANOVER        CLEAR     53  29  39 W8        30.06R
TAPPAHANNOCK*  CLEAR     54  25  33 W5        30.04S
QUINTON*       FAIR      53  31  42 W7        30.04S
CHARLOTTSVILLE MOCLDY    53  30  41 VRB5      30.04R
GORDONSVILLE*  CLOUDY    52  31  44 CALM      30.04R
ORANGE*          N/A     52  30  43 W3        30.06R
LOUISA*        CLEAR     55  34  44 W7        30.03R
BUMPASS*       FAIR      52  30  42 W3        30.04R
FARMVILLE*     CLEAR     55  31  41 SW7       30.05R
CREWE*         FAIR      53  30  41 W8        30.05S
FORT PICKETT*  FAIR      53  21  28 W13G24    30.06R
CHASE CITY*    FAIR      53  28  37 W8        30.07S
CLARKSVILLE*   FAIR      52  32  46 W7        30.08R
SOUTH HILL*    CLEAR     52  32  45 W6        30.13R
LAWRENCEVILLE* FAIR      53  30  41 W3        30.07R
EMPORIA*       CLEAR     52  32  46 W7        30.08S
$$

VAZ088>098-022200-
SOUTHEAST VIRGINIA

CITY           SKY/WX    TMP DP  RH WIND       PRES   REMARKS
NORFOLK        CLEAR     54  31  41 VRB5      30.04R
VIRGINIA BEACH CLEAR     53  30  41 W8        30.03R
NORFOLK NAVAL  PTCLDY    54  31  41 W9        30.05S
WEST POINT*    CLEAR     54  29  39 W7        30.06S
SALUDA*        FAIR      53  32  45 W6        30.03S
NEWPORT NEWS   CLEAR     54  31  41 W9        30.04S
LANGLEY AFB    CLEAR     54  32  42 W7        30.03S
FORT EUSTIS    CLEAR     56  32  41 VRB6      30.02S
WILLIAMSBURG*  CLEAR     57  34  41 W8        30.05S
HR EXEC AP*    FAIR      54  30  40 W9G16     30.04R
FRANKLIN*      CLEAR     54  31  41 W10       30.06S
US460-WAKEFLD  CLEAR     54  31  41 W8        30.05S
$$

VAZ020-022-025-037-045-022200-
WEST CENTRAL AND SOUTHWEST VIRGINIA

CITY           SKY/WX    TMP DP  RH WIND       PRES   REMARKS
STAUNTON*      PTCLDY    46  28  50 W7        30.07R
WAYNESBORO*    FAIR      44  27  51 SW7G23    30.06R
HOT SPRINGS VA CLOUDY    30  27  86 W14G22    29.99F WCI  20
LYNCHBURG      CLEAR     49  28  44 W10       30.09R
DANVILLE       CLEAR     55  30  38 W10       30.08S
SOUTH BOSTON*  FAIR      55  28  36 W5        30.08S
MARTINSVILLE   SUNNY     53  28  38 NW3       30.11S
ROANOKE        PTCLDY    48  28  46 NW16      30.12R
BLACKSBURG     CLEAR     44  30  58 NW12G20   30.12S
DUBLIN*        MOSUNNY   46  30  52 NW14      30.10S
MARION*        SUNNY     47  26  44 W18G28    30.11R
HILLSVILLE*    SUNNY     44  29  53 W8G17     30.07R
RICHLANDS*     FAIR      44  26  48 NW10G23   30.13R
WISE*          SUNNY     45  21  39 NW6       30.16S
ABINGDON*      SUNNY     49  26  39 NW14      30.15S
$$

MDZ021>025-VAZ099-100-022200-
SOUTHERN MARYLAND AND THE DELMARVA PENINSULA

CITY           SKY/WX    TMP DP  RH WIND       PRES   REMARKS
PATUXENT RIVER PTCLDY    52  29  41 W13       30.02R
BAY BRIDGE APT CLEAR     48  32  53 NW14G21   30.02S
LEONARDTOWN    CLEAR     52  30  43 W9G18     30.04R
DOVER          PTCLDY    49  30  48 W20G30    29.98R
GEORGETOWN     PTCLDY    51  29  42 NW9G18    30.00R
EASTON         CLEAR     50  28  43 NW15      30.05R
CAMBRIDGE      CLEAR     50  32  50 NW8       30.01S
SALISBURY      CLEAR     49  30  48 NW7       30.01R
OCEAN CITY     CLEAR     50  29  44 NW9G22    30.00R
WALLOPS ISLAND CLEAR     50  32  50 W9        30.03R
ACCOMACK*      CLEAR     52  34  51 W8        30.03R
$$

NCZ012>017-030>032-022200-
NORTH CENTRAL AND EASTERN NORTH CAROLINA

CITY           SKY/WX    TMP DP  RH WIND       PRES   REMARKS
ROANOKE RAPIDS FAIR      54  32  43 NW7       30.07S
RALEIGH        PTCLDY    57  28  33 W12       30.09S
ELIZABETH CITY CLEAR     53  32  44 W9        30.05S
AHOSKIE*       CLEAR     54  32  44 CALM      30.07R
EDENTON*       CLEAR     56  34  42 CALM      30.07S
CURRITUCK*     CLEAR     55  31  40 W9        30.06R
KILL DEVIL HLS CLEAR     51  38  60 CALM      30.04S
MANTEO         CLEAR     52  33  49 NW8       30.06S
CAPE HATTERAS  CLEAR     54  37  52 VRB7      30.07R
TARBORO*       NOT AVBL
GOLDSBORO      CLEAR     57  29  33 NW12      30.07S
WASHINGTON     CLEAR     56  32  40 NW3       30.08S
GREENVILLE     CLEAR     55  32  41 W6        30.09F
NEW BERN       CLEAR     56  32  40 W8        30.08F
WILMINGTON     SUNNY     58  32  37 NW10      30.10S
$$

VAZ048-022200-
ELSEWHERE

CITY           SKY/WX    TMP DP  RH WIND       PRES   REMARKS
HARRISBURG PA  MOCLDY    44  29  55 W15G25    30.00R
BALTIMORE      PTCLDY    46  28  49 W22G30    30.04R
ANNAPOLIS      CLEAR     50  30  46 NW13      30.03R
ANDREWS AFB    CLEAR     48  29  48 NW16G25   30.03R
PHILADELPHIA   PTCLDY    49  26  41 W23G30    29.96R
HENDERSON NC   CLEAR     51  28  40 W7        30.09R
GREENSBORO     MOSUNNY   56  30  37 W8        30.08S
ROCKY MOUNT    CLEAR     55  31  39 W9        30.09R
$$

VAZ100-022200-
MARINE

STATION/POSITION TIME  TEMP    WIND        PRES    WAVE   SWELL
                       AIR SEA DIR/SP/G            HT/PER HT/PER
                 (UTC) (F)     (DEG/KT/KT) (MB)    (FT/S) (FT/S)
BRANDYWINE LGT   2048   49     310/ 22/ 26   N/A
CAPE MAY NJ      2048   49 49  310/ 18/ 25 1014.7R
LEWES DE         2048   50 51  300/ 21/ 22 1015.3R
OCEAN-CITY-INLET 2048   51 52  310/  7/ 10 1016.2R
WACHAPREAGUE VA  2048   51 54  250/  4/  7 1016.9R
THOMAS POINT MD  2100   49 51  320/ 13/ 16   N/A
GOOSES REEF MD   2100   53 51  310/ 12/ 14 1017.3    1/ 3
COVE POINT MD    2048   51     290/  7/ 12 1017.0R
SOLOMONS ISLAND  2048   53 53  260/  8/ 12   N/A
BISHOPS HEAD MD  2048   51 50  280/  9/ 12 1016.8R
PINEY POINT MD   2048          330/ 12/ 13   N/A
POTOMAC MD       2100   52 52  310/ 12/ 14 1015.9    1/ 2
CAMBRIDGE MD     2048   50 49  300/  9/ 12 1015.5S
LEWISETTA VA     2048   52 53  340/  7/  9 1016.5R
RAPPAHANNOCK LGT 2048          280/ 10/ 11 1017.4R
STINGRAY PT      2100   53     300/ 10/ 14 1017.2
YORK RVR RNG VA  2048   53     290/ 11/ 13 1016.5R
YORKTOWN VA      2048   54 53  270/ 10/ 15 1016.6R
JAMESTOWN VA     2100   54 55  260/ 12/ 14   N/A     1
DOMINION TERM VA 2048   54     290/ 14/ 16 1017.2R
KIPTOPEKE VA     2048      54  290/ 10/ 12   N/A
CHES BAY BRIDGE  2048   53 54  270/ 11/ 15 1017.1R
CAPE HENRY VA    2048   53     270/  9/ 14   N/A
WILLOUBY STN VA  2048   54     280/ 12/ 15 1018.1R
S CRANEY ISL VA  2048   55     250/  5/  9 1017.1R
CAPE HENRY BUOY  2042      56                N/A     2/ 8
1ST LANDING BUOY 2100   54 54              1017.2    1/ 2
CAPE CHARLES BUO 2056      57                N/A     2/ 8
OFFSHORE WE BUOY 2051      57                N/A     3/ 8
64NM E OF VA BCH 2050   52 60  300/ 14/ 17 1017.1R   4/ 6   2/ 8
DUCK PIER NC     2048   52 57  250/ 10/ 12 1017.1R
44100 DUCK FRF   2005      57                N/A     3/ 6
OREGON INLET NC  2036   53 59  300/  7/ 11 1017.8R
HATTERAS NC      2048   53 63  270/  9/ 12 1017.9R
DIAMOND SHLS NC  2050   55 76  310/ 10/ 16 1018.2R   3/ 7   3/ 7
CAPE LOOKOUT NC  2000   57     270/  6/  8 1018.2R
$$




USA.gov is the U.S. government's official web portal to all federal, state and local government web resources and services.